DW0465 Weather Reports


time (UTC)temp
C
wind
direction
speed
KPH
gust
KPH
rain 1hr
cm
rain 24hr
cm
rain mn
cm
humidity
%
barometer
mb
20260906224508 27 158 0.0 16.1 0.00 0.00 0.00 17 1002.1
20260906223009 28 184 0.0 12.9 0.00 0.00 0.00 17 1002.2
20260906221507 28 191 1.6 14.5 0.00 0.00 0.00 17 1002.5
20260906220009 28 132 1.6 17.7 0.00 0.00 0.00 16 1002.6
20260906214505 28 196 0.0 17.7 0.00 0.00 0.00 16 1002.8
20260906213002 28 113 0.0 11.3 0.00 0.00 0.00 16 1002.7
20260906211559 28 237 0.0 14.5 0.00 0.00 0.00 17 1003.0
20260906210058 28 153 1.6 20.9 0.00 0.00 0.00 17 1003.0
20260906204556 28 192 1.6 12.9 0.00 0.00 0.00 17 1003.2
20260906203055 28 136 4.8 30.6 0.00 0.00 0.00 19 1003.4
20260906201554 28 136 1.6 12.9 0.00 0.00 0.00 18 1003.6
20260906200053 28 121 0.0 14.5 0.00 0.00 0.00 21 1003.8
20260906194547 27 134 0.0 14.5 0.00 0.00 0.00 22 1004.0
20260906193043 27 128 0.0 6.4 0.00 0.00 0.00 24 1004.4
20260906191545 26 153 0.0 9.7 0.00 0.00 0.00 25 1004.8
20260906190036 26 173 0.0 11.3 0.00 0.00 0.00 26 1005.2
20260906184532 26 157 0.0 4.8 0.00 0.00 0.00 28 1005.7
20260906183034 25 162 0.0 3.2 0.00 0.00 0.00 30 1006.0
20260906181525 25 146 0.0 17.7 0.00 0.00 0.00 31 1006.3
20260906180020 24 134 0.0 9.7 0.00 0.00 0.00 32 1006.8
20260906174517 23 105 0.0 14.5 0.00 0.00 0.00 34 1007.1
20260906173012 23 153 0.0 3.2 0.00 0.00 0.00 34 1007.5
20260906171508 22 174 0.0 1.6 0.00 0.00 0.00 37 1007.8
20260906170005 22 146 0.0 1.6 0.00 0.00 0.00 36 1008.0
20260906164501 22 136 0.0 1.6 0.00 0.00 0.00 38 1008.1
20260906163121 22 113 0.0 0.0 0.00 0.00 0.00 40 1008.2
20260906161554 21 171 0.0 0.0 0.00 0.00 0.00 42 1008.4
20260906160049 20 77 0.0 0.0 0.00 0.00 0.00 43 1008.7
20260906154545 20 199 0.0 0.0 0.00 0.00 0.00 42 1008.9
20260906153046 18 200 0.0 0.0 0.00 0.00 0.00 46 1009.1
20260906151536 17 204 0.0 0.0 0.00 0.00 0.00 43 1009.3
20260906150031 16 226 0.0 0.0 0.00 0.00 0.00 47 1009.5
20260906144527 15 203 0.0 0.0 0.00 0.00 0.00 51 1009.6
20260906143022 13 214 0.0 1.6 0.00 0.00 0.00 52 1009.8
20260906141518 12 180 0.0 0.0 0.00 0.00 0.00 55 1009.9
20260906140015 11 213 0.0 0.0 0.00 0.00 0.00 61 1010.0
20260906134513 10 225 0.0 0.0 0.00 0.00 0.00 65 1010.2
20260906133132 8 209 0.0 0.0 0.00 0.00 0.00 67 1010.1
20260906131517 8 211 0.0 0.0 0.00 0.00 0.00 68 1010.2
20260906130006 8 210 0.0 1.6 0.00 0.00 0.00 67 1010.1
20260906124510 9 192 0.0 1.6 0.00 0.00 0.00 64 1010.1
20260906123006 8 180 0.0 3.2 0.00 0.00 0.00 67 1010.0
20260906121603 8 205 0.0 0.0 0.00 0.00 0.00 67 1010.1
20260906120002 8 222 0.0 0.0 0.00 0.00 0.00 67 1010.3
20260906114600 9 225 0.0 0.0 0.00 0.00 0.00 66 1010.2
20260906113058 9 209 0.0 0.0 0.00 0.00 0.00 65 1010.3
20260906111556 9 234 0.0 0.0 0.00 0.00 0.00 64 1010.2
20260906110053 10 230 0.0 3.2 0.00 0.00 0.00 64 1010.1
20260906104552 10 222 0.0 0.0 0.00 0.00 0.00 62 1010.2
20260906103051 10 202 0.0 1.6 0.00 0.00 0.00 62 1010.2
20260906101555 10 227 0.0 0.0 0.00 0.00 0.00 62 1009.9
20260906100046 10 217 0.0 1.6 0.00 0.00 0.00 62 1009.8
20260906094545 10 220 0.0 4.8 0.00 0.00 0.00 61 1009.6
20260906093053 10 230 0.0 3.2 0.00 0.00 0.00 61 1009.4
20260906091540 11 228 0.0 3.2 0.00 0.00 0.00 59 1009.4
20260906090039 11 199 0.0 1.6 0.00 0.00 0.00 59 1009.4
20260906084548 11 202 0.0 12.9 0.00 0.00 0.00 60 1009.5
20260906083037 11 218 0.0 3.2 0.00 0.00 0.00 60 1009.3
20260906081537 11 200 0.0 3.2 0.00 0.00 0.00 60 1009.1
20260906080049 11 215 0.0 3.2 0.00 0.00 0.00 60 1009.5
20260906074535 11 217 0.0 6.4 0.00 0.00 0.00 61 1009.4
20260906073033 11 188 0.0 3.2 0.00 0.00 0.00 60 1009.3
20260906071534 11 195 0.0 1.6 0.00 0.00 0.00 61 1009.1
20260906070032 11 207 0.0 3.2 0.00 0.00 0.00 62 1009.3
20260906064535 11 217 0.0 1.6 0.00 0.00 0.00 61 1009.1
20260906063030 11 205 0.0 6.4 0.00 0.00 0.00 60 1009.1
20260906061531 11 208 0.0 1.6 0.00 0.00 0.00 60 1009.0
20260906060027 11 213 0.0 4.8 0.00 0.00 0.00 60 1009.0
20260906054524 12 204 0.0 0.0 0.00 0.00 0.00 58 1009.0
20260906053023 12 219 0.0 4.8 0.00 0.00 0.00 58 1008.9
20260906051522 12 221 0.0 0.0 0.00 0.00 0.00 59 1008.9
20260906050021 12 202 0.0 3.2 0.00 0.00 0.00 59 1008.9
20260906044521 12 208 0.0 0.0 0.00 0.00 0.00 59 1008.7
20260906043018 12 196 0.0 3.2 0.00 0.00 0.00 59 1008.6
20260906041517 13 198 0.0 6.4 0.00 0.00 0.00 56 1008.4
20260906040016 14 195 0.0 0.0 0.00 0.00 0.00 56 1008.4
20260906034524 15 94 0.0 0.0 0.00 0.00 0.00 56 1008.4
20260906033018 15 37 0.0 0.0 0.00 0.00 0.00 57 1008.3
20260906031513 16 37 0.0 0.0 0.00 0.00 0.00 53 1008.1
20260906030012 16 37 0.0 0.0 0.00 0.00 0.00 51 1008.0
20260906024511 17 37 0.0 0.0 0.00 0.00 0.00 52 1007.7
20260906023012 18 37 0.0 0.0 0.00 0.00 0.00 47 1007.6
20260906021516 18 37 0.0 0.0 0.00 0.00 0.00 45 1007.2
20260906020010 20 37 0.0 0.0 0.00 0.00 0.00 42 1006.9
20260906014519 20 26 0.0 1.6 0.00 0.00 0.00 39 1006.8
20260906013010 21 12 0.0 1.6 0.00 0.00 0.00 38 1006.7
20260906011509 22 11 0.0 1.6 0.00 0.00 0.00 37 1006.7
20260906010009 23 342 0.0 6.4 0.00 0.00 0.00 33 1006.5
20260906004507 24 5 0.0 0.0 0.00 0.00 0.00 30 1006.4
20260906003007 25 24 0.0 1.6 0.00 0.00 0.00 29 1006.2
20260906001505 25 63 0.0 0.0 0.00 0.00 0.00 29 1006.2
20260906000005 25 51 0.0 1.6 0.00 0.00 0.00 30 1006.1
20260905234504 25 44 0.0 11.3 0.00 0.00 0.00 29 1006.1
20260905233004 25 63 0.0 12.9 0.00 0.00 0.00 28 1006.0
20260905231503 25 24 0.0 1.6 0.00 0.00 0.00 28 1005.9
20260905230002 25 63 0.0 1.6 0.00 0.00 0.00 28 1005.9